Temperature
4 5 4 4 4 4 4 4 4 4 4 5 5 5 5 5 5 5 5 5 5 5 5 5 5 5 5 5 5 4 4 4 4 4 4 4 4 4
4 4 4 4 4 4 4 4 4 3 3 4 4 4 4 4 4 4 4 5 5 5 4 4 4 4 4 4 4 4 4 4 4 4 4 4 4 3
3 3 3 3 3 3 3 3 3 3 3 3 3 4 4 4 4 4 4 4 4 4 4 4 4 4 4 4 4 4 3 3 3 3 3 3 3 3
3 3 3 3 3 3 3 3 3 3 2 2 3 3 3 3 3 3 3 3 3 3 3 3 3 3 3 3 3 3 3 3 3 3 3 3 3 3
2 2 2 2 2 2 2 2 2 2 2 2 2 2 2 2 3 3 3 3 3 3 3 2 3 3 3 3 3 3 3 3 3 2 2 2 2 2
2 2 2 2 2 2 2 2 2 1 1 1 1 1 2 2 2 2 2 2 2 2 2 2 2 2 2 2 2 2 2 2 2 2 2 2 2 2
1 1 1 1 1 1 1 1 1 1 1 1 1 1 1 1 1 1 1 1 1 1 2 2 2 2 2 2 2 2 2 2 2 1 1 1 1 1
1 1 1 1 1 1 1 1 1 1 0 0 0 0 1 1 1 1 0 0 0 1 1 1 1 1 1 1 1 1 1 1 1 1 1 1 1 1
0 0 0 0 1 1 0 0 1 0 0 0 -0 0 0 0 0 0 0 0 0 0 0 0 0 0 1 1 1 1 1 1 1 0 0 0 0 0
-0 -0 -0 -0 0 0 0 0 0 0 0 0 -0 -0 0 0 -0 -0 0 -0 -0 -0 -1 -1 -0 -0 -0 0 0 0 0 0 -0 -0 -0 -0 -0 -0
-1 -1 -1 -1 -1 -1 -1 -1 -0 -0 -0 -0 -0 -0 -0 -0 -0 -1 -1 -1 -1 -1 -1 -1 -1 -1 -1 -0 -0 -0 -0 -0 -0 -0 -0 -0 -0 -1
-1 -1 -2 -1 -1 -1 -1 -1 -1 -1 -0 -0 -0 -0 -1 -1 -1 -1 -1 -2 -2 -2 -2 -2 -2 -2 -2 -1 -1 -1 -1 -1 -1 -1 -1 -1 -1 -1
-2 -2 -2 -2 -2 -2 -2 -2 -1 -1 -1 -1 -1 -1 -1 -1 -1 -1 -2 -2 -2 -2 -2 -2 -3 -3 -3 -3 -2 -2 -2 -2 -2 -1 -1 -1 -1 -2
-2 -2 -2 -2 -2 -2 -2 -2 -2 -2 -2 -2 -2 -2 -2 -2 -2 -2 -2 -2 -2 -2 -2 -3 -3 -3 -3 -3 -3 -3 -2 -2 -2 -2 -2 -2 -2 -2
-3 -3 -3 -3 -3 -3 -3 -3 -2 -2 -2 -2 -2 -2 -2 -2 -2 -2 -2 -3 -3 -3 -3 -3 -3 -3 -4 -3 -3 -3 -3 -3 -3 -2 -2 -2 -2 -2
-3 -3 -3 -3 -3 -3 -3 -3 -3 -3 -3 -3 -3 -3 -3 -3 -3 -3 -3 -3 -3 -3 -3 -4 -4 -4 -4 -4 -4 -3 -3 -3 -3 -3 -3 -3 -3 -3
-4 -4 -4 -4 -4 -4 -4 -4 -3 -3 -4 -3 -4 -4 -4 -4 -4 -4 -4 -4 -4 -4 -4 -4 -4 -4 -4 -4 -4 -4 -4 -4 -4 -4 -4 -3 -3 -3
-4 -4 -4 -4 -4 -4 -4 -4 -4 -4 -4 -4 -4 -4 -4 -4 -4 -4 -4 -4 -5 -5 -5 -5 -5 -5 -5 -4 -4 -4 -4 -4 -4 -4 -4 -4 -4 -3
-4 -4 -4 -5 -5 -5 -5 -4 -4 -4 -4 -4 -4 -4 -5 -5 -5 -5 -5 -5 -5 -5 -5 -5 -5 -6 -6 -5 -5 -5 -5 -5 -5 -5 -5 -5 -4 -4
-5 -5 -5 -5 -5 -5 -5 -5 -5 -5 -5 -5 -5 -5 -5 -5 -5 -5 -5 -6 -6 -6 -6 -6 -6 -6 -6 -6 -6 -5 -5 -5 -5 -5 -5 -5 -5 -4
-5 -5 -5 -5 -5 -5 -5 -5 -5 -5 -5 -5 -5 -5 -5 -6 -6 -6 -6 -6 -6 -6 -6 -6 -6 -6 -6 -6 -6 -6 -5 -5 -6 -6 -5 -5 -5 -5
-5 -5 -5 -6 -6 -6 -5 -6 -6 -6 -5 -5 -5 -6 -6 -6 -6 -6 -6 -6 -6 -6 -6 -6 -6 -7 -7 -7 -6 -6 -6 -6 -6 -6 -6 -6 -6 -5
-5 -5 -6 -6 -6 -6 -6 -6 -6 -6 -6 -6 -6 -6 -6 -6 -6 -7 -7 -7 -7 -7 -7 -7 -7 -7 -7 -7 -7 -7 -6 -6 -6 -6 -6 -6 -5 -5
Wind_Speed
5 6 5 4 4 5 5 5 5 6 7 5 4 4 5 6 6 7 8 8 9 9 9 9 9 9 10 10 10 11 11 11 11 11 12 13 13 12
4 5 5 5 4 4 5 5 6 7 7 5 5 5 5 6 7 8 8 8 9 9 10 9 9 10 10 10 11 11 11 11 11 12 13 13 12 12
6 6 6 6 5 5 5 5 6 6 8 7 6 6 7 7 6 7 7 7 7 9 10 10 10 11 11 11 11 12 12 11 12 12 13 13 13 12
7 7 7 5 6 5 5 6 6 7 7 8 7 6 8 7 6 6 5 6 7 8 9 10 11 11 11 12 12 13 12 12 12 13 13 12 12 12
7 7 7 7 7 6 7 7 6 6 7 7 7 6 6 5 6 6 6 5 6 6 8 9 10 11 12 12 12 13 12 12 13 13 12 12 12 12
7 7 7 8 8 8 7 7 7 7 7 7 7 6 6 5 5 5 5 5 5 5 6 8 9 11 12 12 12 12 12 12 12 11 11 11 12 12
7 8 8 9 10 8 7 7 7 7 6 7 7 6 6 5 5 5 6 6 6 5 5 5 6 6 7 10 11 11 11 11 10 11 11 12 12 12
7 8 7 9 10 11 11 11 10 9 8 7 7 8 9 7 6 5 5 5 5 4 5 5 5 6 6 7 8 10 10 10 10 11 11 12 12 13
7 7 7 7 8 8 9 10 11 13 12 10 10 10 9 7 7 7 7 7 7 5 4 6 5 6 5 7 8 10 10 10 11 11 11 12 12 13
7 8 8 8 8 8 8 9 9 9 10 10 10 10 8 7 8 8 7 6 5 4 4 5 5 6 5 6 8 10 10 11 11 11 11 11 12 13
7 8 8 9 9 9 9 8 8 8 8 10 10 9 9 8 7 5 4 4 5 4 3 4 4 4 5 5 6 8 9 10 11 11 12 12 12 11
6 7 9 10 10 10 9 8 9 8 7 6 7 7 6 6 7 6 5 5 4 4 3 3 3 3 3 4 4 5 6 8 11 11 11 12 11 8
6 6 6 10 11 10 10 8 9 7 6 6 5 4 4 3 4 5 5 5 6 5 3 3 3 3 4 3 4 5 5 5 6 7 9 10 10 8
7 6 7 10 11 11 9 9 7 6 4 4 4 4 4 3 3 3 3 4 5 6 6 4 4 4 4 5 5 4 4 5 5 6 6 8 8 10
7 8 9 10 10 9 9 8 6 4 4 4 4 4 4 3 3 2 2 2 3 4 4 5 5 5 5 6 5 5 5 5 5 5 5 5 5 5
7 7 8 8 7 7 6 5 4 4 4 4 4 3 3 3 3 2 2 2 3 3 3 4 5 5 5 6 6 6 5 4 4 5 5 6 5 5
5 5 4 4 4 4 4 4 4 3 4 3 3 3 3 3 3 2 2 3 3 4 3 3 3 3 5 5 5 6 6 6 5 5 5 6 6 5
5 4 5 5 5 4 4 4 4 3 4 3 4 3 3 3 3 3 3 3 4 4 4 3 2 3 3 4 6 6 5 5 5 5 5 5 6 5
5 4 5 5 5 5 4 4 4 4 3 4 4 3 3 3 3 3 3 3 4 4 3 3 3 3 5 6 4 5 5 5 5 5 5 5 6 6
4 5 5 5 5 5 4 4 4 3 3 3 4 3 3 3 3 3 3 4 4 3 3 3 3 4 5 5 4 4 6 5 5 5 5 5 5 5
5 5 5 5 5 4 4 4 4 4 4 3 3 3 3 3 3 3 4 4 4 4 4 4 4 4 3 3 3 4 4 5 6 5 5 4 4 3
5 5 5 5 4 4 4 3 4 4 3 3 3 3 3 3 3 3 3 3 3 3 3 3 2 2 3 3 4 4 4 4 4 5 5 5 3 2
5 4 4 4 4 4 3 4 4 3 3 3 3 3 3 3 3 3 3 3 2 2 2 2 2 2 3 3 3 3 4 4 3 3 3 4 4 5
Wind_Direction
241 240 242 246 248 250 251 247 253 268 268 262 258 256 264 265 264 260 262 255 254 253 252 253 259 265 268 270 271 271 270 269 269 270 272 273 273 271
240 241 245 250 249 250 251 252 250 256 267 272 273 285 281 272 267 263 263 259 249 247 248 250 255 260 262 264 267 270 269 268 268 269 270 271 272 270
241 240 244 249 250 250 250 251 252 254 261 274 276 279 279 277 273 266 264 260 254 246 249 254 256 258 260 262 264 267 267 268 268 270 270 269 270 270
243 243 245 245 248 251 250 251 250 250 258 269 277 278 276 273 273 272 268 261 257 253 251 255 257 258 261 262 263 264 261 262 264 266 268 267 266 268
244 245 246 245 245 245 247 250 253 255 256 262 271 277 280 274 275 273 267 264 261 258 258 256 257 259 261 260 262 263 262 262 261 261 261 263 264 266
246 246 245 244 246 248 246 248 253 256 256 259 265 272 276 273 269 268 270 264 262 259 259 262 262 260 257 258 261 261 259 259 258 258 259 260 262 264
253 250 249 249 251 251 250 249 250 251 254 256 261 269 270 264 260 263 265 272 269 257 259 259 261 260 257 255 253 255 256 257 260 262 262 261 262 263
255 256 253 248 250 252 251 250 248 247 249 252 258 261 262 263 260 258 260 270 273 251 259 266 258 261 260 258 254 256 259 260 260 262 263 263 262 263
259 260 259 256 254 252 254 253 252 251 250 251 254 257 259 256 254 252 251 259 266 267 267 268 266 266 264 257 256 259 260 263 261 260 262 265 266 265
256 260 263 263 257 257 259 258 257 254 252 251 255 258 258 258 252 254 259 268 279 270 256 265 269 272 272 258 251 253 259 264 264 262 262 266 269 269
259 260 262 264 265 263 258 259 262 266 263 260 265 266 262 255 255 252 249 255 270 270 257 258 271 285 280 263 253 256 261 263 266 263 263 266 269 273
264 264 262 266 272 267 259 257 260 266 268 267 264 264 258 246 240 236 236 244 263 263 240 245 259 279 280 269 265 267 264 264 269 267 266 267 269 272
264 264 266 270 271 267 266 260 262 272 268 262 261 262 260 255 248 246 242 240 248 257 238 239 251 260 262 276 284 271 267 273 273 270 266 265 266 265
263 266 269 273 270 266 263 269 269 268 260 259 261 260 262 264 265 266 270 272 265 257 241 234 244 250 258 269 274 276 273 272 273 274 275 272 267 262
265 270 274 274 270 262 261 261 256 252 251 253 258 263 265 268 273 278 287 281 287 275 252 242 243 245 251 258 266 270 279 279 267 272 275 273 270 266
267 267 268 267 262 263 259 250 248 251 249 253 261 265 269 266 266 266 268 270 279 284 275 261 252 253 258 262 262 266 271 271 273 278 283 281 276 266
266 262 261 265 260 258 257 256 255 254 257 255 251 254 254 255 264 267 254 257 263 268 279 276 268 271 268 265 262 262 269 276 276 281 284 284 280 269
261 257 254 253 255 255 255 259 258 253 253 252 247 243 244 247 255 258 251 247 250 256 265 273 277 286 283 270 247 257 264 273 280 280 278 281 283 284
254 255 253 252 254 251 252 257 261 258 254 247 246 243 244 246 247 251 252 252 252 255 260 258 253 257 267 279 265 242 262 277 282 281 275 275 276 284
251 252 252 253 254 251 250 254 256 255 248 246 246 240 236 237 240 245 247 249 252 257 262 259 252 256 263 274 280 276 261 267 273 276 284 293 290 287
254 251 250 250 250 252 252 249 246 247 246 242 240 236 231 231 238 245 249 243 245 249 255 265 270 278 287 282 277 283 285 275 275 273 279 286 296 293
256 253 251 250 249 248 251 251 247 245 242 240 239 236 233 231 233 242 244 241 243 251 267 279 284 282 281 269 275 287 302 316 316 300 280 271 273 263
255 254 253 251 248 246 243 241 244 247 245 241 236 233 231 231 234 239 241 241 243 250 267 278 287 290 287 281 285 292 302 312 325 335 332 325 299 279
Height
1488 1488 1488 1489 1489 1490 1491 1491 1492 1489 1488 1487 1487 1486 1486 1485 1484 1483 1483 1482 1482 1481 1481 1480 1480 1480 1479 1479 1479 1479 1478 1478 1478 1478 1478 1478 1478 1477
1484 1484 1484 1485 1485 1485 1486 1486 1486 1486 1484 1483 1482 1482 1481 1480 1479 1479 1478 1477 1476 1476 1475 1475 1474 1474 1473 1473 1473 1473 1473 1472 1472 1472 1472 1472 1471 1471
1479 1479 1480 1480 1480 1480 1481 1481 1481 1481 1479 1478 1478 1477 1476 1475 1475 1474 1473 1472 1471 1470 1470 1469 1469 1468 1468 1467 1467 1467 1467 1466 1466 1466 1466 1465 1466 1465
1475 1475 1475 1475 1475 1475 1475 1476 1476 1476 1475 1473 1472 1472 1471 1470 1469 1468 1467 1467 1466 1465 1464 1464 1463 1463 1462 1462 1461 1461 1460 1460 1460 1460 1460 1459 1459 1459
1470 1470 1470 1470 1470 1470 1470 1470 1470 1470 1470 1468 1467 1467 1465 1465 1464 1463 1462 1461 1460 1460 1459 1458 1458 1457 1456 1456 1455 1455 1454 1454 1453 1453 1453 1453 1453 1453
1465 1465 1465 1465 1465 1465 1465 1465 1465 1464 1464 1463 1462 1461 1460 1459 1459 1457 1456 1456 1455 1454 1453 1453 1452 1451 1451 1450 1449 1449 1448 1447 1447 1446 1446 1446 1446 1446
1459 1459 1460 1460 1460 1460 1460 1459 1459 1459 1458 1458 1456 1455 1454 1453 1453 1452 1451 1450 1449 1448 1447 1447 1446 1445 1445 1444 1443 1443 1442 1441 1441 1440 1440 1440 1440 1440
1454 1454 1454 1454 1454 1454 1454 1454 1454 1453 1452 1452 1451 1450 1449 1448 1447 1447 1446 1444 1443 1443 1442 1441 1441 1439 1439 1438 1437 1437 1436 1435 1435 1435 1434 1434 1434 1434
1449 1449 1448 1448 1448 1448 1447 1447 1447 1447 1447 1446 1445 1444 1443 1443 1442 1441 1440 1439 1438 1438 1437 1434 1434 1433 1433 1432 1432 1431 1430 1429 1429 1429 1428 1428 1427 1427
1443 1443 1443 1442 1442 1442 1441 1441 1440 1440 1440 1440 1439 1438 1438 1437 1437 1436 1435 1434 1433 1433 1432 1430 1429 1428 1428 1427 1426 1426 1425 1424 1423 1422 1422 1422 1421 1421
1438 1437 1437 1437 1436 1436 1436 1435 1434 1433 1433 1433 1433 1432 1431 1431 1431 1431 1429 1429 1427 1427 1427 1426 1424 1422 1421 1421 1421 1420 1419 1418 1417 1416 1416 1415 1415 1414
1433 1432 1431 1431 1430 1430 1430 1429 1428 1427 1427 1427 1426 1426 1425 1425 1425 1425 1424 1423 1422 1421 1421 1421 1419 1418 1416 1415 1415 1415 1414 1413 1412 1411 1410 1409 1409 1408
1427 1426 1426 1425 1425 1424 1424 1423 1422 1422 1421 1421 1420 1419 1419 1419 1419 1419 1419 1418 1417 1416 1416 1416 1414 1414 1413 1410 1409 1410 1409 1408 1406 1405 1404 1403 1402 1401
1422 1421 1420 1420 1419 1419 1418 1417 1417 1417 1416 1415 1415 1414 1414 1413 1413 1413 1413 1413 1412 1411 1411 1411 1409 1409 1408 1406 1404 1404 1404 1403 1402 1400 1399 1398 1397 1396
1417 1416 1415 1414 1414 1413 1412 1412 1411 1411 1410 1410 1409 1409 1409 1409 1408 1408 1407 1407 1406 1406 1406 1405 1405 1404 1404 1402 1400 1399 1398 1397 1397 1395 1394 1393 1391 1390
1412 1411 1410 1409 1408 1408 1407 1406 1406 1405 1405 1404 1404 1404 1404 1403 1403 1402 1402 1401 1401 1400 1401 1401 1400 1400 1399 1398 1396 1394 1394 1393 1392 1391 1389 1387 1386 1385
1407 1405 1404 1403 1403 1402 1401 1401 1400 1400 1400 1400 1399 1399 1398 1398 1398 1398 1397 1397 1396 1395 1395 1395 1395 1395 1394 1394 1392 1390 1389 1388 1387 1386 1384 1382 1380 1379
1402 1400 1399 1399 1398 1397 1396 1396 1395 1395 1395 1395 1395 1394 1394 1394 1393 1393 1393 1392 1391 1391 1391 1390 1390 1389 1389 1388 1388 1386 1385 1384 1383 1381 1380 1377 1374 1374
1397 1395 1394 1394 1393 1393 1392 1391 1391 1390 1390 1390 1390 1390 1389 1389 1389 1388 1388 1388 1387 1387 1387 1387 1386 1386 1384 1383 1382 1383 1381 1379 1378 1376 1375 1373 1371 1369
1391 1391 1390 1389 1389 1388 1388 1387 1386 1386 1386 1385 1385 1385 1385 1385 1384 1384 1384 1384 1383 1383 1383 1383 1383 1382 1381 1380 1378 1377 1377 1375 1374 1372 1370 1369 1367 1366
1387 1386 1386 1385 1384 1384 1383 1382 1382 1382 1381 1381 1381 1381 1380 1380 1380 1380 1380 1380 1380 1379 1379 1379 1379 1379 1378 1377 1375 1372 1372 1372 1370 1368 1366 1365 1363 1362
1383 1382 1381 1381 1380 1379 1378 1378 1378 1377 1377 1377 1377 1377 1377 1376 1376 1376 1376 1376 1376 1376 1376 1376 1375 1375 1374 1373 1371 1369 1368 1367 1366 1365 1364 1363 1361 1359
1378 1378 1377 1376 1376 1375 1374 1374 1374 1373 1373 1373 1372 1372 1373 1373 1373 1373 1373 1373 1373 1373 1373 1372 1372 1371 1371 1370 1368 1367 1366 1364 1363 1361 1361 1360 1359 1358